CAPE
0 0 0 6 6 1 37 59 13 17 85 196 169 284 130 331 225 255 339 84 447 1081 1057 1237 1427 1181 1203 1380 1319 1716 1822 1718 1511 1259 1176 905 932 664 514 559 419 43 12 27 15 10 9 6 6
0 0 0 9 24 11 0 0 0 19 89 159 391 994 1039 997 1014 533 144 595 729 940 960 1021 1605 1424 1168 1354 1343 1462 1758 1739 1559 1295 1130 971 867 740 680 625 454 59 11 0 0 0 0 0 0
0 0 0 13 16 4 0 0 5 12 425 495 691 744 1104 1253 921 153 209 767 966 810 768 923 1646 1608 1270 1312 1232 1299 1501 1682 1493 1268 1105 954 930 887 1019 874 678 245 68 9 0 0 0 0 0
0 0 0 9 15 2 0 0 0 234 501 355 533 731 1082 1230 383 221 852 1148 1079 802 698 1396 1705 1660 1455 1173 1210 1176 1066 1396 1464 1208 1043 993 997 1014 1235 926 944 544 339 155 52 1 0 0 0
0 0 1 13 17 4 0 0 0 351 601 297 689 1065 1021 1011 764 945 1222 1145 985 910 779 1250 1705 1713 1425 1150 1218 1172 1104 1172 1454 1276 1118 1102 1088 1091 1164 1121 826 727 602 476 418 321 150 57 20
0 0 2 10 4 0 0 5 0 0 616 925 1087 1181 1262 1244 889 1032 1147 970 900 871 1038 1144 1404 1702 1602 1497 1473 1515 1371 1167 1227 1430 1481 1471 1392 1321 1261 1301 1150 964 781 671 594 517 447 404 348
0 0 5 8 0 0 0 0 46 104 713 772 1148 1106 714 1278 865 811 962 1095 1069 1145 1069 1044 978 1197 1547 1682 1679 1628 1447 1269 1182 1273 1513 1595 1607 1648 1567 1447 1522 1508 1324 1195 968 837 715 632 572
0 0 0 0 0 0 0 0 5 180 492 928 601 560 748 1428 965 1017 1163 1173 1253 1262 1062 993 937 898 1124 1442 1553 1571 1402 1344 1221 1129 1277 1562 1622 1608 1487 1065 1076 1178 1344 1370 1417 1244 1061 1006 934
0 0 0 0 0 0 0 0 0 2 649 797 531 411 394 1362 992 912 883 880 957 978 1021 1007 970 811 927 1166 1301 1627 1244 1183 1169 945 1113 1202 1127 1247 1224 1274 1257 1612 1475 1357 1474 1604 1394 1341 1125
0 0 0 0 0 0 0 0 0 0 606 515 881 682 462 1196 893 765 691 696 796 956 1085 1042 895 880 803 963 1037 1177 972 995 897 683 663 542 674 793 962 1128 1357 1447 1742 1757 1638 1656 1586 1413 1065
0 0 0 0 0 0 0 0 0 0 0 0 352 373 548 930 793 640 515 528 675 941 955 905 863 989 807 680 702 930 826 922 762 550 406 390 363 467 785 741 863 1166 1198 1273 1134 1192 1275 1318 1087
0 0 0 0 0 0 0 0 0 0 0 0 269 425 560 708 679 656 551 520 548 795 802 876 937 912 782 650 603 715 710 803 731 545 397 317 236 221 318 508 441 453 618 654 665 511 631 768 852
0 0 0 0 0 0 0 0 0 0 0 268 654 541 603 579 627 706 755 561 452 548 726 1049 967 872 765 781 716 605 624 671 633 514 419 288 159 75 91 182 260 298 360 515 549 481 241 210 239
0 0 0 0 0 0 0 0 0 0 122 479 948 711 710 702 620 728 860 814 509 450 468 763 1043 963 861 833 860 624 519 522 548 468 369 326 165 44 6 15 131 215 334 394 449 471 310 265 247
0 0 0 0 0 0 0 0 0 0 83 213 870 1060 953 959 856 812 841 965 803 603 468 533 678 927 907 806 827 810 553 455 449 379 301 259 216 81 14 8 44 246 408 513 465 406 468 449 355
0 0 0 0 0 0 0 0 0 0 0 0 77 916 1277 1304 1240 1013 898 922 969 929 670 676 638 530 749 736 746 754 644 429 335 290 237 166 143 141 83 331 453 272 396 531 643 559 495 569 452
0 0 0 0 0 0 0 0 0 0 0 0 0 132 1066 1445 1458 1313 1165 1192 1197 1136 1171 806 663 404 540 493 430 456 359 300 224 264 426 71 181 423 485 564 614 477 386 481 835 700 678 633 454
0 0 0 0 0 0 0 0 0 0 0 0 0 0 137 1009 1389 1423 1505 1559 1295 1305 1331 974 816 377 489 606 528 427 305 178 189 286 425 486 419 448 512 494 529 588 677 741 914 768 741 613 493
0 0 0 0 0 0 0 0 0 0 0 0 0 65 107 0 157 441 980 1185 963 829 1354 1329 1060 451 428 550 520 538 544 482 338 362 490 587 645 1079 947 612 609 644 753 1050 862 769 665 595 559
0 0 0 0 0 0 0 0 0 0 0 0 0 104 273 525 542 646 651 483 554 787 1030 1186 1197 902 627 585 559 540 599 773 648 683 803 1103 1254 1426 1239 1108 1027 1062 962 1052 914 603 480 666 621
0 0 0 0 0 0 0 0 0 0 0 0 8 162 382 542 790 972 965 825 703 683 761 782 1013 1217 1298 1057 1248 1326 1373 1447 1131 1238 1460 1485 1564 1617 1343 1430 1513 1383 1356 1242 809 439 245 286 520
0 0 0 0 0 0 0 0 0 0 0 0 3 136 337 489 668 1037 1296 1395 1066 944 905 712 522 1080 1132 1258 1419 1184 974 896 731 731 730 977 1125 1030 1352 1414 1416 1503 1414 1206 930 770 195 240 537
0 0 0 0 0 0 0 0 0 0 0 0 0 181 347 466 620 864 992 983 1280 1260 1062 616 636 632 348 280 323 421 366 158 413 360 294 632 663 699 506 240 224 1198 1301 985 1008 778 497 210 487
0 0 0 0 0 0 0 0 0 0 0 0 0 128 381 472 559 686 813 903 944 877 764 528 338 236 217 165 83 14 55 1 289 327 456 563 475 374 544 933 1124 1125 1028 865 782 689 559 376 201
0 0 0 0 0 0 0 0 0 0 0 0 0 0 316 590 503 426 460 478 555 499 433 394 282 132 100 61 160 138 171 114 140 170 268 394 310 308 226 323 534 629 687 837 783 707 572 494 283
0 0 0 0 0 0 0 0 0 0 0 0 0 0 3 296 526 557 421 337 266 194 163 92 39 28 29 13 18 14 44 77 101 114 153 188 201 185 146 62 27 14 87 226 330 454 490 477 274
0 0 0 0 0 0 0 0 0 0 0 0 0 0 0 26 198 249 170 142 100 33 4 0 3 0 0 0 1 0 0 0 0 0 0 0 0 7 0 0 0 0 0 0 0 89 302 391 295
0 0 0 0 0 0 0 0 0 0 0 0 0 0 0 10 66 56 96 70 3 7 23 22 0 1 0 0 0 0 0 0 0 0 0 0 0 0 0 0 0 0 0 0 0 0 0 43 298
0 0 0 0 0 0 0 0 0 0 0 0 0 0 0 0 0 24 41 15 4 3 9 8 2 0 0 0 0 0 0 0 0 0 0 0 0 0 0 0 0 0 0 0 0 0 0 3 1
0 0 0 0 0 0 0 0 0 0 0 0 0 0 0 0 6 0 0 11 5 0 0 0 0 0 2 6 6 3 0 0 0 0 0 0 0 0 0 0 0 0 0 0 0 0 0 0 0
CIN
-0 -0 -0 -13 -19 -5 -31 -39 -107 -11 -7 -35 -54 -129 -64 -63 -68 -47 -72 -703 -474 -266 -218 -156 -101 -134 -126 -103 -105 -59 -39 -29 -44 -54 -46 -58 -45 -79 -87 -59 -71 -240 -234 -176 -161 -113 -0 -0 -0
-0 -0 -0 -11 -12 -26 -0 -0 -0 -13 -15 -49 -170 -130 -113 -102 -140 -119 -101 -428 -372 -309 -252 -222 -116 -99 -133 -114 -127 -102 -67 -43 -41 -69 -78 -88 -78 -78 -65 -52 -65 -231 -267 -0 -0 -0 -0 -0 -0
-0 -0 -0 -12 -11 -5 -0 -0 -13 -24 -144 -112 -112 -110 -100 -112 -137 -330 -644 -396 -318 -333 -313 -262 -133 -117 -138 -122 -136 -134 -108 -71 -67 -93 -104 -114 -94 -62 -19 -14 -18 -100 -175 -230 -0 -0 -0 -0 -0
-0 -0 -0 -10 -6 -3 -0 -0 -1 -57 -62 -61 -92 -110 -143 -148 -483 -572 -460 -356 -317 -338 -334 -179 -121 -109 -128 -156 -140 -135 -162 -108 -85 -83 -93 -84 -70 -40 -2 -13 -0 -22 -41 -84 -120 -20 -0 -0 -0
-0 -0 -2 -2 -3 -7 -0 -0 -0 -74 -64 -52 -110 -119 -147 -124 -172 -452 -371 -365 -373 -330 -310 -186 -127 -102 -121 -155 -153 -144 -147 -118 -72 -66 -68 -59 -43 -21 -1 -0 -7 -4 -3 -9 -13 -22 -50 -51 -16
-0 -0 -3 -6 -3 -0 -0 -90 -0 -0 -65 -158 -134 -119 -123 -120 -151 -409 -350 -384 -393 -398 -305 -244 -161 -108 -111 -106 -110 -103 -112 -128 -88 -46 -33 -20 -12 -11 -9 -0 -0 -0 -2 -4 -7 -12 -17 -11 -15
-0 -0 -9 -5 -0 -0 -0 -0 -79 -210 -128 -93 -146 -178 -168 -121 -174 -452 -413 -374 -369 -315 -310 -293 -308 -234 -132 -105 -99 -93 -90 -99 -95 -70 -37 -17 -7 -0 -1 -11 -4 -1 -1 -1 -6 -7 -15 -11 -6
-0 -0 -0 -0 -0 -0 -0 -0 -45 -139 -72 -116 -100 -214 -133 -124 -136 -427 -370 -347 -336 -336 -364 -309 -292 -303 -234 -132 -95 -87 -100 -103 -109 -114 -76 -29 -16 -12 -15 -53 -40 -24 -6 -4 -2 -6 -9 -6 -5
-0 -0 -0 -0 -0 -0 -0 -0 -0 -21 -97 -70 -69 -63 -28 -132 -177 -465 -423 -397 -379 -376 -357 -347 -335 -324 -294 -200 -163 -104 -140 -132 -117 -156 -114 -84 -82 -48 -51 -46 -38 -2 -4 -5 -2 -1 -2 -2 -12
-0 -0 -0 -0 -0 -0 -0 -0 -0 -0 -83 -81 -193 -188 -260 -189 -380 -533 -540 -540 -473 -421 -331 -286 -292 -302 -322 -270 -265 -219 -243 -218 -209 -237 -229 -254 -202 -163 -111 -83 -43 -20 -1 -0 -1 -0 -0 -0 -24
-0 -0 -0 -0 -0 -0 -0 -0 -0 -0 -0 -0 -225 -258 -429 -150 -196 -548 -573 -574 -571 -460 -393 -383 -396 -335 -357 -379 -374 -289 -294 -251 -267 -306 -348 -338 -342 -284 -168 -173 -140 -71 -50 -28 -39 -29 -21 -18 -42
-0 -0 -0 -0 -0 -0 -0 -0 -0 -0 -0 -0 -330 -167 -203 -160 -494 -100 -112 -567 -571 -480 -473 -444 -373 -319 -329 -355 -394 -381 -351 -300 -311 -350 -382 -404 -433 -420 -346 -264 -249 -221 -165 -149 -109 -146 -115 -89 -94
-0 -0 -0 -0 -0 -0 -0 -0 -0 -0 -0 -341 -260 -138 -163 -468 -494 -388 -83 -545 -564 -544 -476 -394 -393 -404 -412 -335 -331 -394 -400 -386 -390 -393 -402 -444 -479 -500 -476 -400 -329 -287 -267 -199 -160 -153 -244 -245 -223
-0 -0 -0 -0 -0 -0 -0 -0 -0 -0 -329 -287 -162 -147 -139 -97 -431 -128 -120 -91 -311 -407 -566 -468 -406 -401 -417 -405 -331 -394 -423 -428 -410 -410 -434 -441 -477 -514 -521 -484 -142 -112 -144 -217 -220 -175 -147 -40 -25
-0 -0 -0 -0 -0 -0 -0 -0 -0 -0 -496 -317 -204 -175 -103 -85 -32 -75 -92 -82 -79 -95 -466 -120 -521 -447 -408 -412 -415 -398 -460 -469 -459 -461 -466 -463 -461 -469 -531 -554 -536 -90 -58 -34 -44 -59 -47 -47 -36
-0 -0 -0 -0 -0 -0 -0 -0 -0 -0 -0 -0 -439 -205 -126 -59 -56 -66 -84 -84 -82 -58 -324 -254 -155 -539 -488 -469 -462 -435 -433 -472 -484 -460 -139 -496 -475 -395 -123 -91 -54 -43 -50 -56 -41 -42 -50 -40 -40
-0 -0 -0 -0 -0 -0 -0 -0 -0 -0 -0 -0 -0 -356 -177 -91 -83 -92 -92 -75 -77 -55 -52 -184 -142 -224 -105 -114 -527 -531 -486 -490 -490 -133 -99 -378 -111 -85 -72 -59 -58 -55 -51 -45 -43 -42 -41 -26 -26
-0 -0 -0 -0 -0 -0 -0 -0 -0 -0 -0 -0 -0 -0 -310 -178 -98 -73 -92 -57 -47 -47 -50 -61 -44 -220 -167 -109 -102 -125 -239 -522 -179 -124 -95 -80 -73 -69 -61 -59 -59 -54 -48 -139 -67 -53 -46 -61 -50
-0 -0 -0 -0 -0 -0 -0 -0 -0 -0 -0 -0 -0 -559 -532 -0 -653 -233 -101 -56 -45 -230 -67 -59 -48 -84 -292 -138 -97 -75 -89 -94 -83 -94 -55 -47 -47 -18 -39 -50 -51 -69 -42 -28 -47 -119 -88 -100 -54
-0 -0 -0 -0 -0 -0 -0 -0 -0 -0 -0 -0 -0 -568 -459 -389 -444 -445 -420 -400 -340 -241 -157 -93 -56 -314 -355 -233 -153 -54 -105 -245 -226 -190 -86 -53 -61 -37 -46 -48 -30 -52 -43 -72 -47 -39 -309 -203 -133
-0 -0 -0 -0 -0 -0 -0 -0 -0 -0 -0 -0 -480 -454 -402 -384 -292 -253 -310 -312 -298 -221 -23 -65 -95 -135 -158 -170 -131 -102 -78 -69 -82 -48 -46 -60 -62 -32 -43 -69 -50 -55 -38 -56 -50 -64 -485 -430 -256
-0 -0 -0 -0 -0 -0 -0 -0 -0 -0 -0 -0 -111 -349 -310 -294 -271 -188 -126 -130 -195 -187 -114 -63 -11 -129 -117 -59 -52 -65 -73 -55 -39 -38 -97 -82 -103 -60 -99 -93 -113 -110 -37 -34 -41 -41 -60 -480 -331
-0 -0 -0 -0 -0 -0 -0 -0 -0 -0 -0 -0 -0 -241 -205 -183 -162 -136 -120 -155 -101 -76 -105 -77 -92 -93 -150 -39 -70 -46 -17 -17 -31 -102 -35 -76 -72 -59 -26 -40 -263 -122 -61 -30 -46 -30 -34 -25 -341
-0 -0 -0 -0 -0 -0 -0 -0 -0 -0 -0 -0 -0 -212 -122 -100 -90 -93 -96 -96 -114 -138 -115 -80 -71 -115 -101 -48 -17 -80 -3 -3 -0 -9 -10 -51 -49 -57 -145 -97 -79 -88 -89 -75 -74 -62 -52 -55 -359
-0 -0 -0 -0 -0 -0 -0 -0 -0 -0 -0 -0 -0 -35 -93 -39 -41 -38 -63 -76 -72 -60 -67 -79 -50 -115 -114 -17 -10 -4 -7 -4 -17 -35 -23 -18 -42 -50 -50 -158 -117 -118 -115 -99 -88 -83 -105 -86 -250
-0 -0 -0 -0 -0 -0 -0 -0 -0 -0 -0 -0 -0 -0 -9 -47 -17 -12 -16 -34 -21 -20 -19 -61 -65 -57 -45 -62 -45 -27 -37 -47 -22 -24 -26 -14 -25 -42 -53 -68 -67 -85 -248 -185 -167 -167 -104 -81 -70
-0 -0 -0 -0 -0 -0 -0 -0 -0 -0 -0 -0 -0 -0 -0 -57 -28 -10 -9 -8 -18 -20 -8 -0 -1 -0 -0 -0 -56 -0 -6 -0 -0 -0 -0 -0 -0 -58 -0 -0 -0 -0 -0 -0 -0 -261 -155 -154 -173
-0 -0 -0 -0 -0 -0 -0 -0 -0 -0 -0 -0 -0 -0 -0 -51 -10 -14 -12 -13 -2 -2 -1 -4 -0 -6 -0 -0 -0 -0 -0 -0 -0 -0 -0 -0 -0 -0 -0 -0 -0 -0 -0 -0 -0 -0 -0 -306 -164
-0 -0 -0 -0 -0 -0 -0 -0 -0 -0 -0 -0 -0 -0 -0 -0 -2 -35 -21 -8 -0 -1 -7 -0 -0 -0 -0 -0 -0 -0 -0 -0 -0 -0 -0 -0 -0 -0 -0 -0 -0 -0 -0 -0 -0 -0 -0 -4 -66
-0 -0 -0 -0 -0 -0 -0 -0 -0 -0 -0 -0 -0 -0 -0 -0 -86 -0 -0 -55 -37 -0 -0 -0 -0 -0 -1 -2 -26 -32 -0 -0 -0 -0 -0 -0 -0 -0 -0 -0 -0 -0 -0 -0 -0 -0 -0 -0 -0
Wind_Speed
nan nan nan nan nan nan nan nan nan nan nan 16 19 19 20 12 15 15 7 nan 20 20 17 16 16 18 20 17 13 11 9 9 14 17 19 21 24 27 28 28 28 nan nan nan nan nan nan nan nan
nan nan nan nan nan nan nan nan nan nan nan 9 10 15 12 15 8 12 18 18 24 23 16 15 19 17 19 19 12 11 10 12 14 17 20 22 23 25 28 29 30 nan nan nan nan nan nan nan nan
nan nan nan nan nan nan nan nan nan nan 4 4 5 5 11 18 13 23 21 28 27 23 19 17 21 21 20 19 14 9 10 12 13 16 19 21 23 24 26 28 30 30 nan nan nan nan nan nan nan
nan nan nan nan nan nan nan nan nan 6 5 3 11 9 14 14 16 20 29 32 27 23 16 18 19 18 18 18 14 8 8 11 13 14 17 19 22 24 26 27 26 27 28 27 nan nan nan nan nan
nan nan nan nan nan nan nan nan nan 3 3 6 10 13 12 14 12 21 26 28 29 22 15 16 17 15 16 17 14 10 9 9 11 13 16 18 21 25 25 25 26 26 26 25 23 23 23 nan nan
nan nan nan nan nan nan nan nan nan nan 12 5 11 14 15 18 11 18 18 21 23 24 18 16 16 13 14 12 12 12 11 12 12 13 16 19 21 23 24 24 25 25 23 21 20 20 19 18 16
nan nan nan nan nan nan nan nan nan 15 12 9 11 16 14 16 16 11 16 17 18 25 23 19 18 18 15 13 12 13 12 13 13 14 17 20 22 25 26 26 29 26 24 21 17 15 14 14 14
nan nan nan nan nan nan nan nan nan 21 19 18 23 24 24 23 23 19 19 19 19 24 24 21 19 19 16 12 15 15 16 15 14 15 19 20 24 24 20 21 23 20 24 20 17 14 11 10 10
nan nan nan nan nan nan nan nan nan nan 25 26 30 32 26 32 30 20 23 23 18 21 24 25 26 24 22 16 14 14 15 14 14 16 20 21 22 18 20 19 19 16 16 17 15 18 13 8 6
nan nan nan nan nan nan nan nan nan nan 25 19 23 24 30 32 29 30 31 29 25 24 29 20 23 23 25 22 19 18 16 16 15 15 18 20 23 23 22 20 16 18 16 17 17 17 15 10 10
nan nan nan nan nan nan nan nan nan nan nan nan 26 31 27 29 26 27 25 22 22 24 21 25 25 21 24 22 25 22 21 20 17 17 19 22 26 25 20 20 18 20 17 20 20 21 17 13 10
nan nan nan nan nan nan nan nan nan nan nan nan 31 38 27 27 25 26 24 18 17 17 25 28 26 13 14 20 21 25 23 20 20 21 23 27 27 23 22 22 19 21 20 19 20 22 17 10 9
nan nan nan nan nan nan nan nan nan nan nan 32 41 38 27 21 22 20 18 15 13 17 20 21 32 18 14 13 15 22 23 23 24 25 26 25 22 nan nan 22 20 21 21 20 18 19 17 14 8
nan nan nan nan nan nan nan nan nan nan 31 38 41 30 30 28 28 23 22 21 20 17 14 16 23 15 11 15 15 16 18 21 24 22 20 19 20 nan nan nan 22 23 21 18 17 19 15 18 16
nan nan nan nan nan nan nan nan nan nan nan 22 25 27 28 24 24 27 25 23 23 19 17 17 13 9 9 18 16 17 18 20 21 18 17 18 20 nan nan nan nan 20 21 16 16 16 17 15 20
nan nan nan nan nan nan nan nan nan nan nan nan nan 31 24 22 25 22 23 19 19 18 17 14 11 15 21 21 18 14 16 19 20 20 20 20 19 21 nan 23 23 22 22 19 20 19 17 17 17
nan nan nan nan nan nan nan nan nan nan nan nan nan 28 31 27 21 22 23 21 18 22 24 15 12 8 14 19 22 23 23 17 19 24 24 nan 23 24 23 23 25 25 24 26 24 22 21 22 20
nan nan nan nan nan nan nan nan nan nan nan nan nan nan 30 30 23 23 22 24 30 30 26 20 15 17 15 18 25 26 27 26 26 24 27 29 29 28 25 26 29 31 29 31 30 26 25 24 27
nan nan nan nan nan nan nan nan nan nan nan nan nan nan 36 nan 31 35 35 38 38 34 33 27 23 18 24 27 26 25 25 30 30 27 29 34 34 29 24 26 30 34 30 30 28 28 25 27 34
nan nan nan nan nan nan nan nan nan nan nan nan nan 39 38 38 40 40 38 40 41 42 36 35 35 22 25 29 32 31 29 33 37 40 39 34 34 30 29 31 35 36 32 29 27 28 25 29 40
nan nan nan nan nan nan nan nan nan nan nan nan nan 35 40 41 44 45 47 47 47 48 46 49 51 43 39 39 41 42 42 37 39 39 42 40 42 37 32 38 38 40 34 30 27 21 23 30 34
nan nan nan nan nan nan nan nan nan nan nan nan nan 39 39 40 44 50 53 55 52 49 52 57 74 46 51 51 51 54 50 46 44 43 39 35 44 44 35 38 35 32 29 27 26 21 21 25 28
nan nan nan nan nan nan nan nan nan nan nan nan nan 38 38 41 42 51 56 60 61 60 58 61 62 63 68 63 55 54 63 58 46 52 38 28 33 29 28 45 35 28 27 23 21 17 20 23 24
nan nan nan nan nan nan nan nan nan nan nan nan nan 36 38 41 42 45 48 54 57 58 63 66 68 67 75 74 nan nan nan nan 51 42 34 29 34 34 37 40 34 31 32 29 26 23 23 22 24
nan nan nan nan nan nan nan nan nan nan nan nan nan nan 39 37 42 44 48 50 58 63 65 67 68 64 72 nan 62 59 52 53 53 49 42 34 38 38 40 41 38 37 34 31 28 26 27 25 25
nan nan nan nan nan nan nan nan nan nan nan nan nan nan nan 43 44 44 44 47 52 59 60 nan nan nan nan nan nan nan nan nan 60 60 51 45 42 42 41 nan nan nan nan 36 35 31 28 25 22
nan nan nan nan nan nan nan nan nan nan nan nan nan nan nan nan 45 45 44 44 47 nan nan nan nan nan nan nan nan nan nan nan nan nan nan nan nan nan nan nan nan nan nan nan nan nan 31 25 22
nan nan nan nan nan nan nan nan nan nan nan nan nan nan nan nan nan nan nan nan nan nan nan nan nan nan nan nan nan nan nan nan nan nan nan nan nan nan nan nan nan nan nan nan nan nan nan nan 21
nan nan nan nan nan nan nan nan nan nan nan nan nan nan nan nan nan nan nan nan nan nan nan nan nan nan nan nan nan nan nan nan nan nan nan nan nan nan nan nan nan nan nan nan nan nan nan nan nan
nan nan nan nan nan nan nan nan nan nan nan nan nan nan nan nan nan nan nan nan nan nan nan nan nan nan nan nan nan nan nan nan nan nan nan nan nan nan nan nan nan nan nan nan nan nan nan nan nan
Wind_Direction
nan nan nan nan nan nan nan nan nan nan nan 65 23 29 32 26 11 21 352 nan 321 317 315 307 306 305 304 300 301 310 327 335 328 326 323 321 326 331 332 331 327 nan nan nan nan nan nan nan nan
nan nan nan nan nan nan nan nan nan nan nan 48 29 14 20 28 347 339 327 330 326 318 315 299 305 300 301 298 299 310 329 327 325 323 323 327 331 332 331 328 325 nan nan nan nan nan nan nan nan
nan nan nan nan nan nan nan nan nan nan 97 74 38 359 17 19 339 339 328 324 326 323 315 313 304 303 306 302 300 310 318 322 324 326 325 328 331 333 333 331 328 323 nan nan nan nan nan nan nan
nan nan nan nan nan nan nan nan nan 94 105 44 3 11 359 28 350 329 326 324 321 323 317 311 300 300 302 300 291 293 306 319 322 322 319 323 328 327 328 326 327 326 324 321 nan nan nan nan nan
nan nan nan nan nan nan nan nan nan 116 210 24 336 359 330 322 299 327 324 320 316 327 336 315 299 301 306 305 297 299 303 309 314 315 316 322 324 330 330 325 325 330 329 325 323 319 317 nan nan
nan nan nan nan nan nan nan nan nan nan 239 263 301 318 313 312 317 319 319 315 321 326 337 336 328 320 309 309 304 302 306 310 307 310 314 318 326 330 333 327 326 328 328 326 326 323 320 315 313
nan nan nan nan nan nan nan nan nan 248 249 264 294 297 302 319 308 297 288 297 314 324 324 335 337 335 329 313 306 299 298 295 299 305 309 316 326 328 327 329 325 324 330 329 329 328 321 313 312
nan nan nan nan nan nan nan nan nan 263 280 307 311 313 319 318 309 267 278 294 317 322 321 324 327 325 309 299 308 304 305 304 303 304 311 316 321 327 328 318 327 320 321 321 328 323 321 313 309
nan nan nan nan nan nan nan nan nan nan 272 286 310 320 307 305 307 314 315 326 327 329 332 310 309 308 306 297 297 302 309 305 298 302 306 301 304 310 320 324 330 322 307 300 309 322 317 311 299
nan nan nan nan nan nan nan nan nan nan 281 299 301 309 301 303 321 336 346 351 355 354 337 316 306 298 297 298 288 280 275 266 263 267 279 288 295 302 305 311 322 329 314 300 296 307 312 307 294
nan nan nan nan nan nan nan nan nan nan nan nan 308 323 317 318 328 339 356 359 346 338 317 349 340 291 289 292 280 267 261 264 266 275 281 283 285 293 292 287 293 303 307 294 290 296 305 309 301
nan nan nan nan nan nan nan nan nan nan nan nan 298 315 314 321 333 337 349 349 341 333 342 352 2 320 290 264 263 266 264 266 267 270 277 281 284 288 283 287 296 298 299 293 290 291 302 314 305
nan nan nan nan nan nan nan nan nan nan nan 276 289 305 320 325 330 335 335 340 344 353 355 355 355 358 322 300 285 273 271 269 268 274 281 284 284 nan nan 283 287 291 295 296 286 293 301 306 298
nan nan nan nan nan nan nan nan nan nan 266 272 283 308 315 331 336 318 326 340 343 360 359 350 347 329 320 303 280 273 275 275 272 274 283 289 284 nan nan nan 290 290 296 298 292 296 295 297 298
nan nan nan nan nan nan nan nan nan nan nan 264 285 299 311 323 316 335 339 342 344 3 328 335 338 315 342 324 310 291 280 281 281 281 286 291 289 nan nan nan nan 298 297 298 284 281 287 284 283
nan nan nan nan nan nan nan nan nan nan nan nan nan 289 294 307 327 320 313 326 330 321 335 324 309 331 305 294 307 295 291 290 290 286 285 292 294 295 nan 293 296 290 290 287 292 283 282 283 283
nan nan nan nan nan nan nan nan nan nan nan nan nan 285 299 298 301 309 303 318 319 310 314 331 309 324 320 302 299 292 278 280 282 284 281 nan 284 283 283 284 282 282 287 285 289 290 287 287 288
nan nan nan nan nan nan nan nan nan nan nan nan nan nan 292 298 305 280 268 251 255 250 252 247 217 225 239 288 285 274 276 271 266 266 277 281 275 278 281 283 285 284 282 286 292 295 296 297 290
nan nan nan nan nan nan nan nan nan nan nan nan nan nan 264 nan 270 268 276 277 266 263 258 260 252 229 248 250 254 261 273 269 265 264 267 278 277 285 282 270 269 272 276 276 284 286 293 295 294
nan nan nan nan nan nan nan nan nan nan nan nan nan 262 262 263 264 266 268 271 276 271 261 253 254 247 238 252 262 260 265 264 267 269 270 271 275 276 278 276 274 279 275 281 286 291 299 308 306
nan nan nan nan nan nan nan nan nan nan nan nan nan 256 260 265 267 266 267 267 267 268 264 256 248 244 242 242 256 263 264 259 257 264 270 266 264 265 269 275 280 283 283 291 296 294 316 315 303
nan nan nan nan nan nan nan nan nan nan nan nan nan 257 255 254 260 266 269 267 268 269 270 261 258 237 247 244 256 258 257 257 259 260 255 254 262 258 256 264 279 285 290 309 315 322 318 327 329
nan nan nan nan nan nan nan nan nan nan nan nan nan 258 257 257 255 253 259 264 267 267 269 271 266 262 249 243 248 255 248 244 245 252 246 248 267 269 271 267 302 308 300 287 284 280 303 309 303
nan nan nan nan nan nan nan nan nan nan nan nan nan 261 258 258 262 265 263 263 262 263 262 262 263 263 263 247 nan nan nan nan 266 278 279 279 263 260 262 272 280 282 277 275 276 279 286 292 295
nan nan nan nan nan nan nan nan nan nan nan nan nan nan 271 267 268 270 269 268 266 265 264 265 263 258 265 nan 262 264 266 269 267 276 275 268 272 264 259 265 265 273 275 274 275 275 276 283 291
nan nan nan nan nan nan nan nan nan nan nan nan nan nan nan 281 281 280 277 278 273 266 267 nan nan nan nan nan nan nan nan nan 269 271 271 272 273 271 268 nan nan nan nan 274 274 276 278 282 285
nan nan nan nan nan nan nan nan nan nan nan nan nan nan nan nan 291 290 284 277 274 nan nan nan nan nan nan nan nan nan nan nan nan nan nan nan nan nan nan nan nan nan nan nan nan nan 268 274 283
nan nan nan nan nan nan nan nan nan nan nan nan nan nan nan nan nan nan nan nan nan nan nan nan nan nan nan nan nan nan nan nan nan nan nan nan nan nan nan nan nan nan nan nan nan nan nan nan 272
nan nan nan nan nan nan nan nan nan nan nan nan nan nan nan nan nan nan nan nan nan nan nan nan nan nan nan nan nan nan nan nan nan nan nan nan nan nan nan nan nan nan nan nan nan nan nan nan nan
nan nan nan nan nan nan nan nan nan nan nan nan nan nan nan nan nan nan nan nan nan nan nan nan nan nan nan nan nan nan nan nan nan nan nan nan nan nan nan nan nan nan nan nan nan nan nan nan nan